Volver al catálogo

STARLINK-31045

ActivoComunicacionesVLEO
NORAD 58541·PAYLOAD·🇺🇸 United States

Lanzado Dec 8, 2023 desde Vandenberg Space Force Base

Loading…

Próximos Pases (próximas 24 horas)

TLE

ActualizadoSource: CelesTrak SupGP

Época: Sep 14, 2026, 22:16 UTC

1 58541C 23192L   26257.92826389 -.00005118  00000+0 -15127-3 0  2571
2 58541  53.1593 339.9591 0001099  87.1799 354.0934 15.34383410    11

Sigue STARLINK-31045 en tiempo real con AllMySat

Download on the App Store